Time,TemperatureF,DewpointF,PressureIn,WindDirection,WindDirectionDegrees,WindSpeedMPH,WindSpeedGustMPH,Humidity,HourlyPrecipIn,Conditions,Clouds,dailyrainin,SoftwareType,DateUTC
2013-08-01 00:13:00,62.4,62.1,29.93,SW,225,0.0,-999.0,99,-99.99,,,0.00,Acu-Link.com,2013-08-01 04:13:00,
2013-08-01 00:28:00,62.4,62.1,29.93,West,270,0.0,-999.0,99,-99.99,,,0.00,Acu-Link.com,2013-08-01 04:28:00,
2013-08-01 00:43:00,62.2,61.9,29.92,NNW,337,0.0,-999.0,99,-99.99,,,0.00,Acu-Link.com,2013-08-01 04:43:00,
2013-08-01 00:59:00,62.4,62.1,29.92,WSW,247,0.0,-999.0,99,-99.99,,,0.00,Acu-Link.com,2013-08-01 04:59:00,
2013-08-01 01:14:00,62.2,61.9,29.92,ESE,112,0.0,-999.0,99,-99.99,,,0.00,Acu-Link.com,2013-08-01 05:14:00,
2013-08-01 01:30:00,62.2,61.9,29.91,SW,225,0.0,-999.0,99,-99.99,,,0.00,Acu-Link.com,2013-08-01 05:30:00,
2013-08-01 01:45:00,62.2,61.9,29.90,SSE,157,0.0,-999.0,99,-99.99,,,0.00,Acu-Link.com,2013-08-01 05:45:00,
2013-08-01 02:00:00,62.2,61.9,29.90,SW,225,1.1,-999.0,99,-99.99,,,0.00,Acu-Link.com,2013-08-01 06:00:00,
2013-08-01 02:15:00,62.2,61.9,29.89,SSW,202,1.1,-999.0,99,-99.99,,,0.00,Acu-Link.com,2013-08-01 06:15:00,
2013-08-01 02:31:00,62.2,61.9,29.89,SW,225,0.0,-999.0,99,-99.99,,,0.00,Acu-Link.com,2013-08-01 06:31:00,
2013-08-01 02:46:00,62.2,61.9,29.88,SW,225,0.0,-999.0,99,-99.99,,,0.00,Acu-Link.com,2013-08-01 06:46:00,
2013-08-01 03:01:00,62.2,61.9,29.87,WSW,247,0.0,-999.0,99,-99.99,,,0.00,Acu-Link.com,2013-08-01 07:01:00,
2013-08-01 03:16:00,62.4,62.1,29.86,SW,225,0.0,-999.0,99,-99.99,,,0.00,Acu-Link.com,2013-08-01 07:16:00,
2013-08-01 03:32:00,62.6,62.3,29.86,WSW,247,0.0,-999.0,99,-99.99,,,0.00,Acu-Link.com,2013-08-01 07:32:00,
2013-08-01 03:47:00,63.0,62.7,29.86,WSW,247,0.0,-999.0,99,-99.99,,,0.00,Acu-Link.com,2013-08-01 07:47:00,
2013-08-01 04:02:00,63.0,62.7,29.85,WSW,247,0.0,-999.0,99,-99.99,,,0.00,Acu-Link.com,2013-08-01 08:02:00,
2013-08-01 04:17:00,63.3,63.0,29.85,SW,225,2.7,-999.0,99,-99.99,,,0.01,Acu-Link.com,2013-08-01 08:17:00,
2013-08-01 04:33:00,63.5,63.2,29.84,SW,225,0.0,-999.0,99,-99.99,,,0.02,Acu-Link.com,2013-08-01 08:33:00,
2013-08-01 04:48:00,63.9,63.6,29.84,South,180,0.0,-999.0,99,-99.99,,,0.02,Acu-Link.com,2013-08-01 08:48:00,
2013-08-01 05:18:00,64.2,63.9,29.84,SE,135,0.0,-999.0,99,-99.99,,,0.03,Acu-Link.com,2013-08-01 09:18:00,
2013-08-01 05:34:00,64.2,63.9,29.83,WSW,247,0.0,-999.0,99,-99.99,,,0.03,Acu-Link.com,2013-08-01 09:34:00,
2013-08-01 05:49:00,64.2,63.9,29.84,South,180,1.1,-999.0,99,-99.99,,,0.03,Acu-Link.com,2013-08-01 09:49:00,
2013-08-01 06:19:00,64.0,63.7,29.85,WNW,292,0.0,-999.0,99,-99.99,,,0.03,Acu-Link.com,2013-08-01 10:19:00,
2013-08-01 06:50:00,63.7,63.4,29.85,SSW,202,1.1,-999.0,99,-99.99,,,0.03,Acu-Link.com,2013-08-01 10:50:00,
2013-08-01 07:05:00,63.7,63.4,29.85,SE,135,1.7,-999.0,99,-99.99,,,0.03,Acu-Link.com,2013-08-01 11:05:00,
2013-08-01 07:36:00,65.1,64.8,29.85,West,270,1.1,-999.0,99,-99.99,,,0.03,Acu-Link.com,2013-08-01 11:36:00,
2013-08-01 07:51:00,65.1,64.8,29.85,West,270,2.7,-999.0,99,-99.99,,,0.03,Acu-Link.com,2013-08-01 11:51:00,
2013-08-01 08:21:00,73.8,69.7,29.85,SSE,157,2.2,-999.0,87,-99.99,,,0.03,Acu-Link.com,2013-08-01 12:21:00,
2013-08-01 08:37:00,74.1,67.9,29.85,NNE,22,0.0,-999.0,81,-99.99,,,0.03,Acu-Link.com,2013-08-01 12:37:00,
2013-08-01 09:38:00,70.0,66.6,29.85,ESE,112,2.2,-999.0,89,-99.99,,,0.03,Acu-Link.com,2013-08-01 13:38:00,
2013-08-01 09:53:00,70.9,66.8,29.85,ESE,112,0.0,-999.0,87,-99.99,,,0.03,Acu-Link.com,2013-08-01 13:53:00,
2013-08-01 10:08:00,71.6,67.2,29.85,ESE,112,1.1,-999.0,86,-99.99,,,0.03,Acu-Link.com,2013-08-01 14:08:00,
2013-08-01 10:39:00,69.8,66.4,29.86,East,90,1.7,-999.0,89,-99.99,,,0.03,Acu-Link.com,2013-08-01 14:39:00,
2013-08-01 11:25:00,72.7,67.6,29.85,North,0,2.7,-999.0,84,-99.99,,,0.03,Acu-Link.com,2013-08-01 15:25:00,
2013-08-01 11:40:00,71.2,66.1,29.85,NW,315,3.2,-999.0,84,-99.99,,,0.03,Acu-Link.com,2013-08-01 15:40:00,
2013-08-01 11:55:00,73.2,67.0,29.83,North,0,3.2,-999.0,81,-99.99,,,0.03,Acu-Link.com,2013-08-01 15:55:00,
2013-08-01 12:10:00,71.6,66.2,29.84,NNW,337,3.2,-999.0,83,-99.99,,,0.03,Acu-Link.com,2013-08-01 16:10:00,
2013-08-01 12:25:00,71.6,66.8,29.84,NNW,337,4.2,-999.0,85,-99.99,,,0.03,Acu-Link.com,2013-08-01 16:25:00,
2013-08-01 12:41:00,71.8,65.6,29.85,NW,315,0.0,-999.0,81,-99.99,,,0.03,Acu-Link.com,2013-08-01 16:41:00,
2013-08-01 13:42:00,75.0,67.3,29.81,NW,315,7.3,-999.0,77,-99.99,,,0.03,Acu-Link.com,2013-08-01 17:42:00,
2013-08-01 13:57:00,75.0,67.7,29.80,West,270,2.7,-999.0,78,-99.99,,,0.03,Acu-Link.com,2013-08-01 17:57:00,
2013-08-01 14:28:00,77.0,68.1,29.80,ESE,112,3.2,-999.0,74,-99.99,,,0.03,Acu-Link.com,2013-08-01 18:28:00,
2013-08-01 14:43:00,76.8,67.9,29.80,WSW,247,1.7,-999.0,74,-99.99,,,0.03,Acu-Link.com,2013-08-01 18:43:00,
2013-08-01 15:29:00,76.3,67.4,29.80,West,270,2.7,-999.0,74,-99.99,,,0.03,Acu-Link.com,2013-08-01 19:29:00,
2013-08-01 15:44:00,78.4,69.0,29.80,NNW,337,6.8,-999.0,73,-99.99,,,0.03,Acu-Link.com,2013-08-01 19:44:00,
2013-08-01 15:59:00,77.5,67.7,29.80,WSW,247,2.2,-999.0,72,-99.99,,,0.03,Acu-Link.com,2013-08-01 19:59:00,
2013-08-01 16:15:00,76.1,68.0,29.80,SW,225,2.2,-999.0,76,-99.99,,,0.03,Acu-Link.com,2013-08-01 20:15:00,
2013-08-01 16:30:00,77.0,66.4,29.80,West,270,2.7,-999.0,70,-99.99,,,0.03,Acu-Link.com,2013-08-01 20:30:00,
2013-08-01 16:45:00,77.4,68.0,29.79,West,270,2.2,-999.0,73,-99.99,,,0.03,Acu-Link.com,2013-08-01 20:45:00,
2013-08-01 17:00:00,81.9,68.5,29.79,West,270,3.2,-999.0,64,-99.99,,,0.03,Acu-Link.com,2013-08-01 21:00:00,
2013-08-01 17:46:00,78.4,67.4,29.80,WSW,247,4.7,-999.0,69,-99.99,,,0.03,Acu-Link.com,2013-08-01 21:46:00,
2013-08-01 18:02:00,81.1,69.5,29.80,West,270,3.7,-999.0,68,-99.99,,,0.03,Acu-Link.com,2013-08-01 22:02:00,
2013-08-01 18:32:00,79.0,67.1,29.80,SSW,202,3.2,-999.0,67,-99.99,,,0.03,Acu-Link.com,2013-08-01 22:32:00,
2013-08-01 18:47:00,75.6,65.9,29.80,WSW,247,2.7,-999.0,72,-99.99,,,0.03,Acu-Link.com,2013-08-01 22:47:00,
2013-08-01 19:02:00,74.3,65.5,29.81,SE,135,1.7,-999.0,74,-99.99,,,0.03,Acu-Link.com,2013-08-01 23:02:00,
2013-08-01 19:17:00,74.8,66.3,29.81,SE,135,0.0,-999.0,75,-99.99,,,0.03,Acu-Link.com,2013-08-01 23:17:00,
2013-08-01 19:33:00,73.4,65.0,29.82,NW,315,6.3,-999.0,75,-99.99,,,0.03,Acu-Link.com,2013-08-01 23:33:00,
2013-08-01 20:03:00,70.0,63.9,29.83,West,270,0.0,-999.0,81,-99.99,,,0.03,Acu-Link.com,2013-08-02 00:03:00,
2013-08-01 20:34:00,68.0,63.3,29.84,SSW,202,0.0,-999.0,85,-99.99,,,0.03,Acu-Link.com,2013-08-02 00:34:00,
2013-08-01 20:49:00,66.6,63.3,29.85,East,90,0.0,-999.0,89,-99.99,,,0.03,Acu-Link.com,2013-08-02 00:49:00,
2013-08-01 21:05:00,66.0,63.0,29.86,East,90,0.0,-999.0,90,-99.99,,,0.03,Acu-Link.com,2013-08-02 01:05:00,
2013-08-01 21:20:00,65.7,63.0,29.86,ENE,67,2.2,-999.0,91,-99.99,,,0.03,Acu-Link.com,2013-08-02 01:20:00,
2013-08-01 21:35:00,65.3,62.6,29.87,WNW,292,4.2,-999.0,91,-99.99,,,0.03,Acu-Link.com,2013-08-02 01:35:00,
2013-08-01 21:50:00,66.2,62.9,29.87,SE,135,2.7,-999.0,89,-99.99,,,0.03,Acu-Link.com,2013-08-02 01:50:00,
2013-08-01 22:05:00,66.2,62.5,29.87,ESE,112,2.7,-999.0,88,-99.99,,,0.03,Acu-Link.com,2013-08-02 02:05:00,
2013-08-01 22:21:00,65.5,62.2,29.87,West,270,2.2,-999.0,89,-99.99,,,0.03,Acu-Link.com,2013-08-02 02:21:00,
2013-08-01 22:36:00,65.3,61.0,29.87,ENE,67,0.0,-999.0,86,-99.99,,,0.03,Acu-Link.com,2013-08-02 02:36:00,
2013-08-01 23:06:00,64.0,59.7,29.87,ESE,112,1.7,-999.0,86,-99.99,,,0.03,Acu-Link.com,2013-08-02 03:06:00,
2013-08-01 23:22:00,63.7,60.1,29.88,East,90,0.0,-999.0,88,-99.99,,,0.03,Acu-Link.com,2013-08-02 03:22:00,
2013-08-01 23:52:00,62.2,58.9,29.89,ESE,112,1.1,-999.0,89,-99.99,,,0.03,Acu-Link.com,2013-08-02 03:52:00,